This demonstration page uses our WeatherBlox Daily Observations layout. Learn more.

Left ArrowRight Arrow

Hourly Observations for September 22, 2021

Temp ( °F °C ) Dew Point ( °F °C ) Humidity (%) Winds ( mph kmh ) Pressure ( in mb ) Visibility ( mi km ) Precip ( " mm )
12:15 am 00:15 Clear 43 6 40 4.6 91 91 NNW 3 6 30.47 1032 10 16 N/A
12:35 am 00:35 Clear 43 5.9 40 4.7 92 92 N N/A 30.46 1031 10 16 N/A
12:55 am 00:55 Clear 41 5.1 40 4.2 94 94 N N/A 30.47 1032 10 16 N/A
1:15 am 01:15 Clear 42 5.5 40 4.7 95 95 N N/A 30.45 1031 10 16 N/A
1:35 am 01:35 Clear 41 5.2 40 4.5 95 95 N N/A 30.46 1031 10 16 N/A
1:55 am 01:55 Clear 41 5.1 39 3.9 92 92 WSW 3 6 30.46 1031 10 16 N/A
2:15 am 02:15 Clear 39 4.1 37 3 93 93 WNW 3 6 30.47 1032 10 16 N/A
2:35 am 02:35 Clear 40 4.4 38 3.6 95 95 W 3 6 30.46 1032 10 16 N/A
2:55 am 02:55 Clear 40 4.3 38 3.5 95 95 WNW 5 7 30.47 1032 10 16 N/A
3:15 am 03:15 Clear 39 4 38 3.2 95 95 WNW 5 7 30.47 1032 10 16 N/A
3:35 am 03:35 Clear 39 4 38 3.2 95 95 N N/A 30.47 1032 10 16 N/A
3:55 am 03:55 Clear 38 3.4 37 2.8 96 96 N N/A 30.47 1032 10 16 N/A
4:15 am 04:15 Clear 39 3.7 38 3.1 96 96 N N/A 30.46 1032 10 16 N/A
4:35 am 04:35 Clear 38 3.6 37 3 96 96 N N/A 30.46 1032 10 16 N/A
4:55 am 04:55 Clear 38 3.4 37 2.6 95 95 N N/A 30.46 1032 10 16 N/A
5:15 am 05:15 Clear 38 3.2 37 2.6 96 96 N N/A 30.46 1031 10 16 N/A
5:35 am 05:35 Clear 36 2.4 35 1.9 97 97 N N/A 30.46 1032 10 16 N/A
5:55 am 05:55 Clear 38 3.4 37 2.8 96 96 N N/A 30.45 1031 10 16 N/A
6:15 am 06:15 Clear 37 2.8 36 2.2 96 96 N N/A 30.46 1032 10 16 N/A
6:35 am 06:35 Clear 35 1.7 34 1.2 97 97 N N/A 30.47 1032 10 16 N/A
6:55 am 06:55 Clear 37 2.7 36 2.2 97 97 N N/A 30.45 1031 10 16 N/A
7:15 am 07:15 Clear 37 2.7 35 1.9 95 95 N N/A 30.45 1031 10 16 N/A
7:35 am 07:35 Sunny 36 2.4 35 1.7 95 95 N N/A 30.45 1031 10 16 N/A
7:55 am 07:55 Sunny 37 2.5 35 1.7 95 95 N N/A 30.45 1031 10 16 N/A
8:15 am 08:15 Sunny 39 3.7 37 2.9 95 95 N N/A 30.44 1031 10 16 N/A
8:35 am 08:35 Sunny 43 5.9 40 4.5 91 91 N N/A 30.42 1030 10 16 N/A
8:55 am 08:55 Sunny 45 7.2 42 5.4 88 88 N N/A 30.41 1030 10 16 N/A
9:15 am 09:15 Sunny 48 9 42 5.8 81 81 N N/A 30.39 1029 10 16 N/A
9:35 am 09:35 Sunny 52 11 43 6.2 73 73 N N/A 30.36 1028 10 16 N/A
9:55 am 09:55 Sunny 55 12.8 45 7.3 69 69 N N/A 30.35 1028 10 16 N/A
10:15 am 10:15 Sunny 58 14.5 45 7.3 62 62 N N/A 30.33 1027 10 16 N/A
10:35 am 10:35 Sunny 61 16 46 7.7 58 58 S 3 6 30.31 1026 10 16 N/A
10:55 am 10:55 Sunny 64 17.6 46 7.6 52 52 SSE 5 7 30.28 1025 10 16 N/A
11:15 am 11:15 Sunny 67 19.4 41 5.2 39 39 SSW 7 11 30.27 1025 10 16 N/A
11:35 am 11:35 Sunny 69 20.4 40 4.3 35 35 SSW 9 15 30.25 1024 10 16 N/A
11:55 am 11:55 Sunny 70 21.3 40 4.2 33 33 S 13 20 30.23 1024 10 16 N/A
12:15 pm 12:15 Sunny 71 21.7 38 3.2 30 30 SSW 16 26 30.22 1023 10 16 N/A
12:35 pm 12:35 Sunny 72 22.1 38 3.2 29 29 S 10 17 30.20 1023 10 16 N/A
12:55 pm 12:55 Sunny 72 22.4 37 2.9 28 28 SW 12 19 30.19 1022 10 16 N/A
1:15 pm 13:15 Sunny 73 23 37 2.8 27 27 SW 12 19 30.17 1022 10 16 N/A
1:35 pm 13:35 Sunny 74 23.4 37 2.6 26 26 S 14 22 30.15 1021 10 16 N/A
1:55 pm 13:55 Sunny 74 23.6 37 2.8 26 26 SW 9 15 30.14 1021 10 16 N/A
2:15 pm 14:15 Sunny 76 24.6 37 2.6 24 24 SSW 9 15 30.12 1020 10 16 N/A
2:35 pm 14:35 Sunny 77 24.9 37 2.6 23 23 SSW 15 24 30.10 1019 10 16 N/A
2:55 pm 14:55 Sunny 77 25.1 36 2.3 23 23 S 10 17 30.08 1019 10 16 N/A
3:15 pm 15:15 Partly Cloudy 78 25.4 36 2 22 22 S 14 22 30.07 1018 10 16 N/A
3:35 pm 15:35 Sunny 78 25.8 35 1.8 21 21 S 10 17 30.05 1018 10 16 N/A
3:55 pm 15:55 Sunny 79 26.1 36 2.1 21 21 SSW 9 15 30.04 1017 10 16 N/A
4:15 pm 16:15 Sunny 79 26.2 35 1.6 20 20 S 13 20 30.03 1017 10 16 N/A
4:35 pm 16:35 Sunny 79 26.3 34 1.2 19 19 SSE 13 20 30.02 1017 10 16 N/A
4:55 pm 16:55 Sunny 79 26.3 34 1.2 19 19 S 8 13 30.01 1016 10 16 N/A
5:15 pm 17:15 Sunny 79 26.1 36 2.1 21 21 S 9 15 30.00 1016 10 16 N/A
5:35 pm 17:35 Sunny 79 26.3 35 1.7 20 20 S 12 19 29.99 1016 10 16 N/A
5:55 pm 17:55 Sunny 78 25.8 36 2.4 22 22 S 10 17 29.99 1016 10 16 N/A
6:15 pm 18:15 Sunny 77 25 37 2.8 24 24 SSE 10 17 29.99 1016 10 16 N/A
6:35 pm 18:35 Sunny 75 24.1 38 3.2 26 26 SSE 10 17 29.99 1015 10 16 N/A
6:55 pm 18:55 Sunny 74 23.1 39 3.7 28 28 SSE 10 17 30.00 1016 10 16 N/A
7:15 pm 19:15 Sunny 72 22 39 3.9 31 31 SE 10 17 30.00 1016 10 16 N/A
7:35 pm 19:35 Sunny 69 20.7 40 4.6 35 35 SE 10 17 30.01 1016 10 16 N/A
7:55 pm 19:55 Clear 68 20 40 4.5 36 36 SE 10 17 30.01 1016 10 16 N/A
8:15 pm 20:15 Clear 66 19 40 4.5 39 39 SE 9 15 30.02 1017 10 16 N/A
8:35 pm 20:35 Clear 64 18 40 4.6 41 41 SE 9 15 30.04 1017 10 16 N/A
8:55 pm 20:55 Clear 63 17 41 5 45 45 SSE 8 13 30.05 1018 10 16 N/A
9:15 pm 21:15 Clear 61 16.1 41 5.2 49 49 SE 8 13 30.06 1018 10 16 N/A
9:35 pm 21:35 Clear 61 16.1 41 5.1 48 48 SE 8 13 30.06 1018 10 16 N/A
9:55 pm 21:55 Clear 60 15.8 41 5.1 49 49 SSE 9 15 30.06 1018 10 16 N/A
10:15 pm 22:15 Clear 58 14.7 42 5.3 54 54 SSE 8 13 30.07 1018 10 16 N/A
10:35 pm 22:35 Clear 59 14.8 41 5.2 53 53 SSE 9 15 30.07 1018 10 16 N/A
10:55 pm 22:55 Clear 59 14.8 41 5.1 52 52 SSE 9 15 30.07 1018 10 16 N/A
11:15 pm 23:15 Clear 58 14.7 41 5 52 52 SSE 9 15 30.07 1018 10 16 N/A
11:35 pm 23:35 Clear 58 14.5 41 5 53 53 SE 9 15 30.07 1018 10 16 N/A
11:55 pm 23:55 Clear 57 14.1 41 4.9 54 54 SE 9 15 30.06 1018 10 16 N/A

Powered by AerisWeather